Regional Weather Roundup
Issued by NWS

Home | Current Version | Previous Version | Graphics & Text | Print | Product List | Glossary On
Versions: 1 2 3 4 5 6 7 8 9 10 11 12 13 14 15 16 17 18 19 20 21 22 23 24 25 26 27 28 29 30 31 32 33 34 35 36 37 38 39 40 41 42 43 44 45 46 47 48 49 50
785
ASUS43 KIND 030909
RWRIN

WEATHER ROUNDUP FOR INDIANA
NATIONAL WEATHER SERVICE INDIANAPOLIS IN
500 AM EDT TUE MAY 03 2016

NOTE: "FAIR" INDICATES FEW OR NO CLOUDS BELOW 12,000 FEET WITH NO
SIGNIFICANT WEATHER AND/OR OBSTRUCTIONS TO VISIBILITY.

* - STATION DOES NOT REPORT WEATHER SUCH AS PRECIPITATION OR FOG.

+ - STATION NOT QUALITY CONTROLLED BY THE NATIONAL WEATHER SERVICE.
    USE DATA WITH CAUTION...ESPECIALLY DEWPOINT AND RELATIVE
    HUMIDITY OBSERVATIONS.

INZ001>003-010>013-019-020-031000-
NORTHWEST INDIANA

CITY           SKY/WX    TMP DP  RH WIND       PRES   REMARKS
GARY /AIRPORT/ CLEAR     39  39 100 CALM      29.98S
KNOX *+        CLOUDY    45  39  81 N3        29.95F
LA PORTE +     MOCLDY    45  45 100 NW5       29.96F
MICHIGAN CITY+ FOG       39  39 100 CALM      29.98S VSB 1/2
MONTICELLO +   CLOUDY    48  44  84 N5        29.95S
RENSSELAER +   CLOUDY    46  43  87 NW7       29.96S
VALPARAISO     CLOUDY    45  40  82 NW5       29.97S

$$

LMZ046-743>745-031000-
SOUTHERN LAKE MICHIGAN

STATION/POSITION TIME  TEMP    WIND        PRES    WAVE
                       AIR SEA DIR/SP/G            HT
                 (UTC) (F)     (DEG/KT/KT) (MB)    (FT)
BURNS HARBOR     0801   46     330/  5/  7 1015.6F
MICHIGAN CITY    0800   44     260/  4/  5   N/A

$$

INZ004-005-014>016-021>024-031000-
NORTH CENTRAL INDIANA

CITY           SKY/WX    TMP DP  RH WIND       PRES   REMARKS
GOSHEN         CLOUDY    48  46  93 NW3       29.95S
LOGANSPORT +   CLOUDY    48  48 100 N6        29.95S FOG
PERU/GRISSOM   LGT RAIN  48  48 100 N7        29.93S FOG
ROCHESTER +    CLOUDY    50  50 100 CALM      29.95S
SOUTH BEND     CLOUDY    45  42  89 NW3       29.96F
WARSAW +       CLOUDY    46  46 100 N3        29.95S FOG

$$

INZ006>009-017-018-025>027-031000-
NORTHEAST INDIANA

CITY           SKY/WX    TMP DP  RH WIND       PRES   REMARKS
ANGOLA *+      CLOUDY    46  39  76 CALM      29.94S
AUBURN +       CLOUDY    46  45  93 CALM      29.95S FOG
FORT WAYNE     CLOUDY    49  47  93 N5        29.95S FOG
HUNTINGTON +   CLOUDY   N/A N/A N/A N3        29.94S HAZE

$$

INZ028-029-035-036-043>045-051>053-031000-
WEST CENTRAL INDIANA

CITY           SKY/WX    TMP DP  RH WIND       PRES   REMARKS
CRAWFORDSVL +  CLOUDY    47  47 100 NW6       29.95R
GREENCASTLE +  CLOUDY    50  50 100 N7        29.94S FOG
LAFAYETTE      CLOUDY    48  45  89 N5        29.95S
TERRE HAUTE    CLOUDY    52  48  86 NW7       29.95S

$$

INZ030>032-037>040-046>048-054>057-064-065-031000-
CENTRAL INDIANA

CITY           SKY/WX    TMP DP  RH WIND       PRES   REMARKS
CP ATTERBURY + CLOUDY    52  50  93 NW5       29.92S
FISHERS *+     CLOUDY    50  50 100 CALM      29.92S
FRANKFORT +      N/A     49  49 100 N5        29.95S FOG
GREENWOOD *+   CLOUDY    52  52 100 N5        29.92S
INDIANAPOLIS   LGT RAIN  51  49  92 NW7       29.91R FOG
-EAGLE CREEK   CLOUDY    51  49  92 N7        29.92R FOG
KOKOMO *+      CLOUDY    48  46  93 NE6       29.94S
MARION +       CLOUDY    49  47  94 NE3       29.94S FOG
SHELBYVILLE    LGT RAIN  54  51  90 NE7       29.90S FOG
ZIONSVILLE +   DRIZZLE   49  48  97 N6        29.93S

$$

INZ033-034-041-042-049-050-058-059-031000-
EAST CENTRAL INDIANA

CITY           SKY/WX    TMP DP  RH WIND       PRES   REMARKS
MUNCIE         CLOUDY    52  47  83 NE6       29.92S

$$

INZ060-061-067>069-081>083-085>088-031000-
SOUTHWEST INDIANA

CITY           SKY/WX    TMP DP  RH WIND       PRES   REMARKS
EVANSVILLE     CLOUDY    53  49  86 NW6       29.95F
HUNTINGBURG *+ MOCLDY    52  46  82 NW3       29.95S
WASHINGTON +   PTCLDY    51  51 100 NW5       29.94S FOG

$$

INZ062-063-066-070>080-084-089>092-031000-
SOUTH CENTRAL AND SOUTHEAST INDIANA

CITY           SKY/WX    TMP DP  RH WIND       PRES   REMARKS
BEDFORD +      CLOUDY    50  50 100 CALM      29.93R FOG
BLOOMINGTON    CLOUDY    51  48  89 NW5       29.93S
MADISON *+     CLOUDY    54  50  87 W3        29.93S
NORTH VERNON + CLOUDY   N/A N/A N/A CALM      29.92S
SEYMOUR +      CLOUDY    54  50  87 CALM      29.93R

$$





USA.gov is the U.S. government's official web portal to all federal, state and local government web resources and services.